User: anonymous
Location: Ostrava
(49.8330°N, 18.2830°E)
Time: 02:07:36
(UTC+02:00)
Language:

Vanguard 2 Rocket - Orbit

View from above orbital plane
View from above orbital plane
View from above satellite
View from above satellite

Ground track
Ground track

The orbit data is extracted from the following two-line orbital elements,

1 00012U 59001B   14263.70100552  .00000389  00000-0  20910-3 0  9180
2 00012 032.9097 123.8467 1671546 217.0224 130.2676 11.43378622282367
Epoch (UTC): 20 September 2014 16:49:26
Eccentricity: 0.1671546
inclination: 32.9097°
perigee height: 553 km
apogee height: 3336 km
right ascension of ascending node: 123.8467°
argument of perigee: 217.0224°
revolutions per day: 11.43378622
mean anomaly at epoch: 130.2676°
orbit number at epoch: 28236

The dashed part of the orbit path shows where the satellite is in the earth's shadow,  

DLR